Terminal Aerodrome Forecast
Issued by NWS Pueblo, CO

Home | Current Version | Previous Version | Text Only | Print | Product List | Glossary On
Versions: 1 2 3 4 5 6 7 8 9 10 11 12 13 14 15 16 17 18 19 20 21 22 23 24 25 26 27 28 29 30 31 32 33 34 35 36 37
000
FTUS45 KPUB 312341
TAFPUB
TAF
KPUB 312341Z 0100/0124 14010G20KT P6SM FEW060 SCT090 BKN120
     FM010300 VRB06KT P6SM FEW060 SCT120
     FM011800 10009KT P6SM FEW080 SCT100 SCT130=

USA.gov is the U.S. government's official web portal to all federal, state and local government web resources and services.